Location: Newark
(58.9986°N, 38.5006°E)
Time: 19:43:31
(UTC+00:00)

N. Korean satellite - Pass Details

Date: 08 December 2019
Orbit: 454 x 507 km, 97.2° (Epoch: 21 January)

Event Time Altitude Azimuth Distance (km) Brightness Sun altitude
Rises 13:23:38 0° 142° (SE) 2,610 10.3 -6.0°
Reaches altitude 10° 13:25:48 10° 134° (SE) 1,726 9.3 -6.2°
Maximum altitude 13:29:17 39° 65° (ENE) 775 7.1 -6.6°
Drops below altitude 10° 13:32:45 10° 356° (N) 1,722 9.1 -6.9°
Sets 13:34:55 0° 349° (N) 2,603 10.0 -7.2°
